Mid-South Regional Weather Roundup Report



Select Weather Forecast Office:  



NWS Memphis Weather Forecast Office

NWS - Mid-South Regional Weather Roundup Report
County Warning Area [CWA]: MEG
Regional NWS Weather Office: Memphis, TN

976
ASUS44 KMEG 250410
RWRMEG
MEMPHIS CWA HOURLY WEATHER ROUNDUP
NATIONAL WEATHER SERVICE MEMPHIS TN
1100 PM CDT MON APR 24 2017

...WEST TENNESSEE...

CITY           SKY/WX    TMP DP  RH WIND       PRES   REMARKS
MEMPHIS INTL   PTCLDY    63  56  78 SE12      29.77R
NWS MEMPHIS      N/A     60 N/A N/A MISG        N/A
JACKSON        CLEAR     56  55  97 S5        29.79R
SOMERVILLE     CLEAR     59  55  88 SE6       29.77F
BOLIVAR        CLEAR     55  54  94 CALM      29.79S
LEXINGTON      CLEAR     54  54 100 CALM      29.78F FOG
SAVANNAH       CLEAR     50  50 100 SE3       29.78F FOG
DYERSBURG      CLEAR     62  56  80 S5        29.78S
UNION CITY     CLEAR     61  55  82 S7        29.76S
PARIS          CLEAR     55  54  94 S6        29.78S
HUNTINGDON     PTCLDY    59  57  94 SW3       29.78S


...EASTERN ARKANSAS...

CITY           SKY/WX    TMP DP  RH WIND       PRES   REMARKS
JONESBORO      CLEAR     57  54  89 CALM      29.75S
WEST MEMPHIS   CLEAR     60  58  92 SE3       29.76R
BATESVILLE     CLEAR    N/A N/A N/A SE5       29.75S
NEWPORT        CLEAR     60  52  74 MISG      29.75R
WALNUT RIDGE   CLEAR     61  54  77 SE6       29.75R
BLYTHEVILLE    CLEAR     61  57  87 S7        29.76S
SEARCY         CLEAR     53  51  93 CALM      29.76S
STUTTGART      CLEAR     63  45  51 S6        29.76S
PINE BLUFF     CLEAR     59  50  72 S6        29.76S
MONTICELLO     PTCLDY    60  49  66 S3        29.77S


...NORTH MISSISSIPPI...

CITY           SKY/WX    TMP DP  RH WIND       PRES   REMARKS
TUPELO         CLEAR     55  52  89 CALM      29.80S
OXFORD         CLEAR     57  54  88 SE7       29.81S
TUNICA         CLEAR     55  54  94 SE6       29.77S
CORINTH        CLEAR     54  52  94 SE3       29.79F
GREENWOOD      CLEAR     57  55  93 CALM      29.78S
COLUMBUS       CLEAR     53  52  97 CALM      29.80R
STARKVILLE     CLEAR     52  52 100 CALM      29.82S
GOLDEN TRIANGL CLEAR     55  48  76 CALM      29.77S


...SOUTHEAST MISSOURI...

CITY           SKY/WX    TMP DP  RH WIND       PRES   REMARKS
KENNETT        CLEAR     63  57  82 S3        29.73F
MALDEN         CLEAR     61  54  77 SW3       29.76R
WEST PLAINS    CLEAR     60  43  53 S8        29.75R
POPLAR BLUFF   CLEAR     59  57  93 CALM      29.74R
CAPE GIRARDEAU CLEAR     56  52  86 CALM      29.73F


...NORTHWEST ALABAMA...

CITY           SKY/WX    TMP DP  RH WIND       PRES   REMARKS
MUSCLE SHOALS  CLEAR     54  50  86 CALM      29.80S


...MIDDLE TENNESSEE...

CITY           SKY/WX    TMP DP  RH WIND       PRES   REMARKS
NASHVILLE      CLEAR     57  55  93 S3        29.77S
CLARKSVILLE    CLEAR     58  53  84 W5        29.77R
COLUMBIA       CLEAR    N/A N/A N/A CALM      29.77S


...WESTERN KENTUCKY...

CITY           SKY/WX    TMP DP  RH WIND       PRES   REMARKS
PADUCAH        CLEAR     63  53  70 S9        29.75R
FORT CAMPBELL  CLEAR     57  55  91 SW6       29.77R


...CENTRAL ARKANSAS...

CITY           SKY/WX    TMP DP  RH WIND       PRES   REMARKS
LITTLE ROCK    PTCLDY    57  50  77 SE6       29.75R


SKY/WX REPORTED AS FAIR MEANS FEW OR NO CLOUDS BELOW
12 THOUSAND FEET.

Mid-South Regional Weather Roundup Report from: NOAA-NWS